STARLINK-4709 (53778 NORAD) Tracking and Keplerian Element Data

This shows tracking and keplerian element data for the satellite.

Feedback or suggestion? Click here.




ElementValue
Catalog53778
NameSTARLINK-4709
Epoch Orbit1100
Epoch Day325.33334491
Epoch Year2022
RAAN285.4523
Inclination53.2164
Eccentricity0.0002024
Argument of Perigee41.3658
Mean Anonmoly270.0753
Mean Motion15.08809645
Decay Rate0.0005314
L11 53778U 22111F 22325.33334491 .00053140 00000+0 33347-2 0 9995
L22 53778 53.2164 285.4523 0002024 41.3658 270.0753 15.08809645 11009



Live tracking and technical data element details for STARLINK-4709 (NORAD 53778). STARLINK-4709 can be tracked NOW for your location showing map with azimuth and elevation plus other details from your city location.







IsCatalogInMostPopularTable: catalog: 53778, numindb: -1

Insert: records affected: 1


GetName: 53778 STARLINK-4709

Hit Count: inserted at: Thu, 08 Dec 2022 09:06:18 GMT